Total_Precipitation_Accumulation
0.25 0.18 0.19 0.15 0.23 0.16 0.15 0.15 0.36 0.39 0.49 0.21 0.33 0.15 0.23 0.39 0.93 0.95 0.82 1.16 1.02 0.53 0.43 0.27 0.40 0.33 0.22 0.15 0.11 0.22 0.05 0.10 0.10 0.14 0.13 0.13 0.14 0.13 0.09 0.09 0.12 0.16 0.16 0.29 0.33 0.06 0.07 0.00 0.09 0.06 0.12 0.17 0.08 0.04 0.04 0.03 0.02 0.00 0.17 0.00 0.12 0.01 0.03 0.03 0.02 0.14 0.09 0.02 0.01 0.02 0.00 0.01 0.04 0.03 0.01 0.08 0.19 0.15 0.27 0.36 0.45 0.24 0.24 0.16 0.20 0.23 0.54
0.17 0.26 0.15 0.10 0.22 0.13 0.19 0.31 0.47 0.44 0.45 0.32 0.22 0.13 0.24 0.57 1.34 0.97 1.09 1.15 1.20 0.67 0.61 0.50 0.23 0.25 0.24 0.14 0.12 0.06 0.29 0.16 0.14 0.23 0.21 0.19 0.19 0.13 0.12 0.06 0.06 0.11 0.08 0.10 0.26 0.10 0.11 0.04 0.03 0.07 0.05 0.26 0.01 0.01 0.02 0.02 0.09 0.09 0.32 0.17 0.26 0.51 0.39 0.08 0.26 0.11 0.08 0.11 0.07 0.03 0.03 0.03 0.09 0.07 0.08 0.06 0.04 0.10 0.13 0.10 0.19 0.24 0.15 0.27 0.29 0.38 0.39
0.21 0.21 0.26 0.18 0.15 0.28 0.27 0.29 0.37 0.19 0.13 0.13 0.37 0.38 0.33 0.92 1.04 1.21 1.27 0.87 1.26 0.89 0.43 0.34 0.16 0.30 0.15 0.19 0.24 0.26 0.18 0.19 0.19 0.18 0.30 0.17 0.18 0.09 0.06 0.02 0.05 0.03 0.06 0.17 0.09 0.07 0.24 0.16 0.04 0.07 0.07 0.40 0.01 0.01 0.01 0.01 0.17 0.05 0.05 0.03 0.13 0.15 0.25 0.16 0.26 0.34 0.20 0.32 0.27 0.18 0.18 0.09 0.05 0.01 0.02 0.02 0.02 0.16 0.10 0.12 0.12 0.19 0.12 0.10 0.46 0.74 0.49
0.22 0.18 0.13 0.17 0.14 0.12 0.28 0.41 0.12 0.03 0.06 0.09 0.12 0.42 0.39 1.12 1.38 0.95 1.38 1.28 0.59 0.50 0.30 0.44 0.51 0.42 0.35 0.29 0.34 0.25 0.40 0.29 0.26 0.22 0.37 0.24 0.22 0.13 0.05 0.05 0.04 0.03 0.10 0.26 0.25 0.13 0.06 0.11 0.09 0.06 0.31 0.26 0.05 0.02 0.05 0.00 0.03 0.04 0.03 0.06 0.05 0.34 0.10 0.26 0.35 0.32 0.47 0.26 0.33 0.19 0.05 0.08 0.20 0.10 0.05 0.06 0.04 0.20 0.31 0.28 0.27 0.26 0.13 0.25 0.41 0.42 0.58
0.22 0.19 0.34 0.19 0.13 0.33 0.30 0.16 0.06 0.02 0.04 0.10 0.19 0.35 0.34 0.73 1.17 1.03 0.99 0.71 1.06 0.68 0.45 0.44 0.48 0.81 0.81 0.69 0.59 0.55 0.38 0.49 0.48 0.31 0.52 0.28 0.24 0.13 0.17 0.11 0.10 0.09 0.15 0.32 0.33 0.19 0.09 0.03 0.04 0.16 0.11 0.33 0.35 0.02 0.01 0.02 0.01 0.01 0.02 0.03 0.11 0.19 0.14 0.22 0.22 0.26 0.19 0.20 0.25 0.15 0.03 0.30 0.19 0.15 0.09 0.09 0.04 0.10 0.17 0.13 0.43 0.20 0.24 0.45 0.36 0.43 0.16
0.24 0.36 0.15 0.14 0.18 0.19 0.06 0.07 0.07 0.02 0.02 0.06 0.17 0.44 0.33 0.88 1.17 1.10 1.58 1.35 0.90 0.79 0.67 0.39 1.12 0.65 0.83 0.81 0.34 0.45 0.44 0.42 0.71 0.46 0.35 0.27 0.31 0.26 0.07 0.24 0.15 0.06 0.28 0.37 0.22 0.25 0.21 0.07 0.10 0.06 0.13 0.22 0.98 0.31 0.12 0.14 0.10 0.02 0.07 0.05 0.14 0.54 0.22 0.20 0.19 0.27 0.18 0.28 0.30 0.17 0.19 0.19 0.25 0.40 0.39 0.24 0.11 0.27 0.30 0.23 0.11 0.17 0.36 0.43 0.48 0.42 0.36
0.29 0.16 0.16 0.13 0.19 0.06 0.06 0.07 0.06 0.01 0.02 0.03 0.29 0.32 0.31 0.92 1.16 1.28 1.21 1.49 0.69 0.62 0.91 0.64 0.57 0.67 0.68 0.61 0.46 0.45 0.63 0.55 0.55 0.71 0.54 0.45 0.38 0.34 0.24 0.24 0.18 0.19 0.44 0.36 0.30 0.38 0.34 0.09 0.13 0.16 0.37 0.11 0.36 0.36 0.41 0.27 0.37 0.06 0.09 0.09 0.07 0.08 0.42 0.43 0.32 0.35 0.42 0.21 0.24 0.23 0.25 0.23 0.22 0.26 0.21 0.31 0.34 0.34 0.27 0.24 0.29 0.25 0.28 0.27 0.47 0.50 0.73
0.23 0.15 0.20 0.27 0.16 0.06 0.08 0.15 0.05 0.03 0.03 0.08 0.25 0.33 0.91 1.40 1.89 1.30 0.72 1.05 0.78 0.45 0.58 0.79 0.67 0.58 0.48 0.56 0.49 0.49 0.49 0.86 0.52 0.58 0.64 0.50 0.59 0.36 0.42 0.38 0.23 0.21 0.11 0.19 0.49 0.42 0.31 0.34 0.22 0.28 0.13 0.11 0.13 0.38 0.43 0.53 0.52 0.46 0.40 0.13 0.17 0.02 0.76 0.08 0.48 0.41 0.43 0.43 0.25 0.40 0.45 0.33 0.41 0.33 0.24 0.30 0.41 0.40 0.32 0.17 0.21 0.21 0.39 0.53 0.18 0.30 0.53
0.29 0.18 0.08 0.04 0.04 0.06 0.09 0.16 0.16 0.04 0.05 0.22 0.13 0.43 0.56 1.29 1.27 1.83 1.62 0.83 0.67 0.62 0.40 0.45 0.59 0.81 0.65 0.59 0.49 0.59 0.54 0.80 0.87 0.74 0.56 0.44 0.29 0.39 0.43 0.16 0.21 0.21 0.20 0.17 0.45 0.37 0.20 0.16 0.33 0.25 0.11 0.22 0.17 0.16 0.34 0.05 0.23 0.13 0.40 0.45 1.50 0.37 0.86 0.23 0.48 0.34 0.51 0.48 0.50 0.65 0.50 0.49 0.59 0.59 0.43 0.29 0.42 0.46 0.37 0.45 0.75 0.33 0.42 0.32 0.15 0.35 0.53
0.11 0.21 0.11 0.05 0.05 0.06 0.09 0.10 0.11 0.07 0.06 0.28 0.32 0.44 0.99 0.82 0.76 1.45 1.58 1.12 0.31 0.67 0.27 0.34 0.45 0.59 0.72 0.93 0.69 0.85 0.75 0.60 0.68 0.43 0.26 0.31 0.28 0.28 0.22 0.37 0.52 0.39 0.41 0.50 0.66 0.25 0.20 0.17 0.11 0.15 0.12 0.20 0.18 0.09 0.18 0.02 0.05 0.12 0.18 0.50 0.35 0.36 0.40 0.22 0.47 0.28 0.30 0.40 0.56 0.69 0.97 0.89 0.46 0.50 0.44 0.36 0.34 0.26 0.39 0.28 0.70 0.54 0.65 0.34 0.33 0.27 0.25
0.13 0.08 0.06 0.06 0.05 0.09 0.07 0.12 0.12 0.13 0.11 0.46 0.57 0.48 0.85 1.24 1.36 0.92 0.77 0.76 0.14 0.44 0.41 0.40 0.64 0.65 0.34 0.47 0.65 0.40 0.83 0.57 0.64 0.69 0.33 0.21 0.30 0.25 0.36 0.31 0.42 0.45 0.60 0.37 0.19 0.30 0.33 0.19 0.12 0.04 0.20 0.17 0.13 0.12 0.21 0.05 0.05 0.04 0.10 0.21 0.18 0.27 0.27 0.25 0.55 0.68 0.48 0.47 0.52 0.77 0.72 0.94 0.40 0.50 0.22 0.27 0.47 0.39 0.32 0.17 0.17 0.74 0.54 0.59 0.24 0.24 0.20
0.09 0.09 0.09 0.07 0.05 0.04 0.07 0.09 0.10 0.11 0.14 0.27 0.36 0.37 0.81 1.10 0.77 0.81 0.69 0.48 0.23 0.35 0.48 0.66 0.59 0.52 0.30 0.20 0.35 0.43 0.43 0.50 0.49 0.32 0.55 0.57 0.73 0.85 0.64 0.40 0.31 0.19 0.17 0.35 0.32 0.38 0.33 0.18 0.18 0.16 0.07 0.10 0.15 0.07 0.09 0.23 0.14 0.06 0.06 0.14 0.27 0.19 0.22 0.22 0.39 0.43 0.60 0.85 0.77 0.89 0.72 0.59 0.97 0.31 0.22 0.17 0.27 0.24 0.27 0.40 0.21 0.42 0.48 0.39 0.56 0.48 0.55
0.11 0.09 0.08 0.06 0.04 0.03 0.07 0.05 0.11 0.10 0.10 0.26 0.24 0.42 0.72 0.59 0.90 0.78 0.70 0.66 0.37 0.41 0.39 0.51 0.47 0.53 0.35 0.20 0.15 0.53 0.26 0.17 0.39 0.35 0.47 0.56 0.56 0.60 0.59 0.79 0.95 0.42 0.07 0.33 0.39 0.23 0.30 0.49 0.46 0.20 0.16 0.18 0.14 0.25 0.12 0.15 0.19 0.11 0.23 0.15 0.24 0.11 0.12 0.24 0.33 0.33 0.47 0.95 1.46 1.04 0.82 0.78 0.80 0.57 0.46 0.18 0.17 0.29 0.23 0.24 0.28 0.61 0.55 0.39 0.30 0.45 0.54
0.09 0.07 0.04 0.04 0.03 0.03 0.07 0.09 0.07 0.08 0.09 0.20 0.26 0.38 0.74 0.43 0.88 0.62 0.70 0.68 0.22 0.58 0.27 0.53 0.48 0.30 0.23 0.25 0.32 0.32 0.17 0.36 0.30 0.32 0.45 0.44 0.50 0.53 0.35 0.38 0.47 0.40 0.34 0.38 0.23 0.24 0.18 0.15 0.36 0.34 0.43 0.42 0.61 0.36 0.32 0.17 0.32 0.28 0.22 0.20 0.18 0.31 0.21 0.21 0.34 0.30 0.60 0.37 1.01 0.61 0.72 0.60 0.73 0.57 0.56 0.27 0.43 0.31 0.21 0.66 0.39 0.39 0.45 0.39 0.29 0.53 0.40
0.07 0.05 0.05 0.04 0.03 0.03 0.07 0.05 0.07 0.07 0.08 0.07 0.18 0.37 0.61 0.50 0.69 0.76 0.60 0.64 0.26 0.12 0.26 0.60 0.34 0.35 0.34 0.43 0.39 0.34 0.41 0.49 0.43 0.67 0.46 0.59 0.74 0.51 0.48 0.42 0.55 0.37 0.38 0.47 0.25 0.37 0.26 0.23 0.40 0.39 0.49 0.45 0.41 0.64 0.30 0.30 0.33 0.55 0.41 0.47 0.33 0.44 0.41 0.93 0.39 0.50 0.17 0.58 0.65 0.50 0.43 0.88 0.59 0.67 0.89 0.32 0.38 0.31 0.21 0.15 0.56 0.31 0.64 0.60 0.35 0.34 0.43
0.06 0.06 0.05 0.04 0.03 0.04 0.04 0.06 0.06 0.06 0.05 0.07 0.20 0.53 0.73 0.56 0.39 0.36 0.65 0.60 0.51 0.34 0.20 0.72 0.39 0.53 0.35 0.44 0.55 0.66 0.48 0.29 0.49 0.53 0.46 0.33 0.35 0.79 0.53 0.35 0.25 0.29 0.50 0.38 0.27 0.34 0.32 0.18 0.39 0.40 0.57 0.53 0.55 0.52 0.48 0.53 0.33 0.18 0.47 0.46 0.39 0.33 0.42 1.10 0.77 0.94 0.23 0.43 0.46 0.40 0.52 0.42 0.38 0.54 0.47 0.76 0.50 0.37 0.37 0.22 0.62 0.50 0.43 0.51 0.52 0.50 0.49
0.06 0.05 0.05 0.04 0.04 0.04 0.05 0.07 0.06 0.04 0.03 0.09 0.48 0.69 0.64 0.55 0.48 0.56 0.58 0.53 0.79 0.54 0.80 0.69 0.46 0.55 0.43 0.41 0.37 0.37 0.48 0.36 0.33 0.28 0.28 0.20 0.12 0.08 0.18 0.07 0.21 0.21 0.24 0.27 0.60 0.78 0.51 0.14 0.52 0.63 0.91 0.52 0.35 0.25 0.36 0.36 0.37 0.55 0.29 0.28 0.47 1.11 0.79 0.79 0.37 0.45 0.35 0.64 0.56 0.70 0.35 0.51 0.56 0.53 0.77 0.75 1.03 0.77 0.84 0.56 0.68 0.71 0.43 0.35 0.36 0.47 0.54
0.04 0.05 0.03 0.03 0.04 0.04 0.05 0.08 0.05 0.03 0.04 0.07 0.58 0.63 0.49 0.49 0.40 0.41 0.43 0.47 0.51 0.34 0.29 0.39 0.48 0.51 0.51 0.42 0.55 0.40 0.34 0.21 0.27 0.14 0.16 0.10 0.11 0.07 0.03 0.05 0.15 0.06 0.09 0.35 0.24 0.27 0.14 0.22 0.38 0.49 0.69 0.83 0.42 0.32 0.41 0.43 0.31 0.28 0.50 0.49 0.44 0.34 1.22 0.62 1.07 0.64 0.94 0.60 0.93 0.56 0.41 0.21 0.14 0.26 0.50 0.68 1.64 1.18 0.81 0.78 1.35 0.35 0.43 0.46 0.39 0.39 0.54
0.04 0.05 0.04 0.04 0.03 0.04 0.07 0.07 0.03 0.05 0.06 0.16 0.77 0.32 0.45 0.46 0.36 0.50 0.74 0.59 0.86 0.76 0.50 0.33 0.44 0.47 0.34 0.39 0.36 0.64 0.38 0.31 0.28 0.28 0.08 0.10 0.09 0.07 0.11 0.04 0.21 0.46 0.21 0.33 0.39 0.35 0.15 0.15 0.31 0.42 0.64 0.67 0.28 0.49 0.38 0.22 0.47 0.49 0.25 0.59 0.39 0.42 0.13 0.43 0.27 0.86 0.79 0.81 0.90 0.78 1.07 0.68 0.47 0.54 0.29 0.78 0.75 1.45 1.37 0.88 0.34 0.56 0.33 0.50 0.33 0.66 0.62
0.05 0.04 0.04 0.04 0.03 0.03 0.05 0.05 0.04 0.05 0.07 0.38 0.60 0.56 0.36 0.32 0.46 0.50 0.90 0.92 0.66 0.65 0.53 0.62 0.46 0.39 0.42 0.44 0.22 0.27 0.18 0.19 0.27 0.21 0.08 0.16 0.05 0.04 0.11 0.40 0.09 0.27 0.22 0.26 0.13 0.20 0.24 0.30 0.51 0.45 0.42 0.53 0.62 0.49 0.32 0.41 0.28 0.34 0.26 0.63 0.29 0.56 0.20 0.32 0.49 0.34 0.44 0.65 0.53 0.70 0.73 2.21 0.13 0.49 0.18 0.52 0.69 1.24 0.95 0.57 0.49 0.38 0.53 0.30 0.40 0.31 0.31
0.04 0.04 0.04 0.03 0.03 0.04 0.06 0.04 0.05 0.06 0.22 0.38 0.30 0.37 0.30 0.43 0.48 0.61 0.74 0.99 1.08 0.73 0.44 0.34 0.36 0.27 0.31 0.18 0.21 0.22 0.32 0.20 0.12 0.19 0.08 0.16 0.08 0.07 0.18 0.06 0.11 0.22 0.20 0.18 0.39 0.24 0.29 0.35 0.57 0.37 0.64 0.72 0.84 0.50 0.65 0.61 0.33 0.39 0.19 0.29 0.27 0.61 0.31 0.33 0.33 0.25 0.61 0.70 0.52 0.80 1.14 0.76 0.41 0.21 0.50 0.55 0.40 0.52 0.51 0.42 0.58 0.38 0.43 0.46 0.51 0.80 0.57
0.04 0.05 0.04 0.04 0.04 0.05 0.06 0.04 0.05 0.11 0.42 0.27 0.13 0.29 0.42 0.42 0.37 0.48 0.65 0.94 1.00 0.69 0.41 0.28 0.25 0.15 0.11 0.07 0.07 0.06 0.03 0.02 0.02 0.05 0.16 0.07 0.02 0.04 0.06 0.13 0.06 0.17 0.10 0.11 0.27 0.24 0.46 0.44 0.53 0.30 0.31 0.33 0.33 0.33 0.37 0.47 0.47 0.35 0.24 0.10 0.50 0.50 0.22 0.46 0.75 0.45 0.63 0.74 0.78 0.60 0.42 0.43 0.31 0.20 0.27 0.38 0.27 0.31 0.46 0.33 0.70 1.02 0.89 0.79 0.48 0.59 0.69
0.04 0.04 0.04 0.05 0.05 0.07 0.04 0.02 0.06 0.30 0.40 0.10 0.11 0.27 0.32 0.25 0.31 0.36 0.53 0.60 0.29 0.23 0.15 0.07 0.04 0.01 0.00 0.01 0.00 0.00 0.01 0.01 0.01 0.02 0.04 0.08 0.06 0.04 0.14 0.12 0.14 0.11 0.21 0.07 0.22 0.24 0.29 0.38 0.56 0.49 0.33 0.37 0.36 0.32 0.25 0.57 0.61 0.13 0.27 0.10 0.22 0.19 0.06 0.13 0.42 0.42 0.19 0.28 0.38 0.37 0.42 0.45 0.60 0.34 0.32 0.27 0.33 0.42 0.53 0.55 0.79 0.84 1.02 0.69 0.71 0.55 0.65
0.04 0.03 0.04 0.07 0.05 0.03 0.02 0.03 0.09 0.50 0.16 0.06 0.10 0.19 0.20 0.19 0.19 0.34 0.33 0.32 0.29 0.11 0.01 0.02 0.10 0.03 0.02 0.01 0.00 0.00 0.00 0.01 0.00 0.01 0.04 0.10 0.20 0.12 0.10 0.06 0.05 0.23 0.20 0.15 0.38 0.30 0.62 0.77 0.53 0.33 0.41 0.31 0.29 0.33 0.33 0.30 0.14 0.31 0.22 0.15 0.12 0.26 0.15 0.18 0.26 0.33 0.18 0.56 0.50 0.50 0.64 0.53 0.42 0.55 0.27 0.16 0.23 0.44 0.59 0.61 0.79 0.83 0.78 0.84 0.58 0.75 0.85
0.04 0.04 0.07 0.05 0.03 0.02 0.04 0.03 0.31 0.42 0.11 0.08 0.09 0.10 0.13 0.12 0.15 0.26 0.36 0.24 0.08 0.11 0.08 0.01 0.05 0.00 0.00 0.00 0.00 0.00 0.00 0.00 0.00 0.00 0.01 0.05 0.07 0.11 0.07 0.04 0.08 0.25 0.20 0.16 0.32 0.35 0.35 0.39 0.34 0.42 0.42 0.30 0.40 0.62 0.38 0.37 0.39 0.26 0.25 0.47 0.12 0.29 0.70 0.38 0.22 0.28 0.21 0.56 0.54 0.47 0.46 0.37 0.36 0.28 0.32 0.29 0.45 0.60 0.53 0.57 0.64 0.76 1.04 0.85 0.76 0.66 1.19
0.05 0.05 0.05 0.02 0.02 0.03 0.03 0.06 0.38 0.26 0.11 0.08 0.10 0.13 0.11 0.06 0.06 0.14 0.19 0.20 0.18 0.23 0.07 0.00 0.00 0.00 0.00 0.00 0.00 0.00 0.00 0.00 0.00 0.00 0.00 0.00 0.03 0.05 0.03 0.05 0.06 0.06 0.11 0.12 0.35 0.33 0.35 0.12 0.21 0.30 0.32 0.33 0.15 0.18 0.33 0.29 0.43 0.11 0.20 0.60 0.14 0.49 0.15 0.28 0.34 0.49 0.55 0.23 0.21 0.24 0.30 0.29 0.31 0.36 0.26 0.24 0.26 0.41 0.50 0.61 0.79 0.93 0.75 0.60 0.62 0.70 0.82
0.05 0.05 0.03 0.02 0.02 0.02 0.04 0.18 0.27 0.17 0.09 0.07 0.05 0.04 0.04 0.03 0.04 0.08 0.09 0.10 0.30 0.02 0.07 0.02 0.00 0.00 0.00 0.00 0.00 0.00 0.00 0.00 0.00 0.00 0.00 0.00 0.00 0.02 0.03 0.04 0.03 0.06 0.12 0.22 0.19 0.23 0.28 0.24 0.44 0.36 0.24 0.46 0.22 0.27 0.19 0.25 0.38 0.21 0.15 0.16 0.21 0.22 0.40 0.35 0.18 0.26 0.28 0.45 0.46 0.34 0.19 0.42 0.58 0.38 0.36 0.27 0.28 0.30 0.36 0.38 0.48 0.62 0.88 0.61 0.66 1.08 0.81
0.03 0.05 0.02 0.03 0.02 0.02 0.07 0.19 0.15 0.10 0.06 0.03 0.02 0.02 0.03 0.05 0.03 0.05 0.06 0.10 0.17 0.09 0.02 0.01 0.00 0.00 0.00 0.00 0.00 0.00 0.00 0.00 0.00 0.00 0.01 0.00 0.00 0.02 0.01 0.03 0.04 0.07 0.11 0.11 0.22 0.18 0.18 0.31 0.39 0.13 0.14 0.23 0.66 0.41 0.32 0.47 0.41 0.34 0.25 0.18 0.12 0.21 0.23 0.30 0.31 0.45 0.41 0.16 0.15 0.18 0.16 0.12 0.20 0.30 0.27 0.29 0.34 0.25 0.27 0.29 0.37 0.57 0.71 0.62 0.58 0.57 0.85
0.03 0.02 0.02 0.02 0.01 0.04 0.11 0.10 0.09 0.06 0.03 0.02 0.02 0.03 0.05 0.02 0.02 0.02 0.04 0.06 0.10 0.23 0.12 0.06 0.03 0.03 0.05 0.00 0.00 0.00 0.00 0.00 0.00 0.00 0.00 0.00 0.01 0.02 0.03 0.05 0.04 0.08 0.08 0.04 0.06 0.07 0.20 0.12 0.07 0.18 0.24 0.39 0.33 0.51 0.41 0.30 0.23 0.14 0.11 0.09 0.11 0.05 0.06 0.09 0.13 0.20 0.12 0.06 0.09 0.06 0.12 0.17 0.25 0.25 0.30 0.26 0.28 0.30 0.42 0.22 0.22 0.34 0.44 0.50 0.61 0.73 0.81
0.02 0.02 0.02 0.02 0.01 0.04 0.11 0.06 0.05 0.02 0.01 0.02 0.04 0.10 0.03 0.09 0.02 0.07 0.00 0.05 0.11 0.25 0.10 0.06 0.03 0.00 0.00 0.00 0.00 0.00 0.00 0.00 0.00 0.00 0.01 0.02 0.01 0.02 0.04 0.07 0.07 0.05 0.22 0.25 0.17 0.13 0.14 0.12 0.10 0.06 0.06 0.28 0.51 0.37 0.28 0.27 0.30 0.11 0.08 0.17 0.08 0.06 0.18 0.14 0.16 0.19 0.20 0.12 0.12 0.18 0.17 0.13 0.18 0.25 0.19 0.20 0.24 0.26 0.19 0.16 0.16 0.20 0.30 0.35 0.51 0.66 0.58
0.02 0.02 0.01 0.02 0.01 0.06 0.04 0.07 0.02 0.00 0.00 0.05 0.07 0.02 0.05 0.07 0.17 0.02 0.01 0.04 0.10 0.16 0.08 0.08 0.06 0.01 0.00 0.00 0.00 0.00 0.00 0.00 0.00 0.01 0.02 0.02 0.02 0.02 0.01 0.02 0.06 0.13 0.23 0.21 0.16 0.12 0.07 0.16 0.04 0.06 0.05 0.08 0.47 0.75 0.23 0.28 0.17 0.18 0.09 0.11 0.11 0.13 0.15 0.18 0.40 0.20 0.15 0.14 0.14 0.14 0.11 0.13 0.19 0.15 0.26 0.34 0.48 0.30 0.26 0.32 0.38 0.23 0.21 0.28 0.34 0.57 0.87
0.01 0.01 0.01 0.01 0.01 0.03 0.02 0.01 0.01 0.00 0.02 0.03 0.04 0.02 0.14 0.14 0.03 0.05 0.02 0.03 0.10 0.15 0.21 0.17 0.03 0.01 0.00 0.00 0.00 0.00 0.00 0.00 0.00 0.04 0.01 0.02 0.03 0.01 0.03 0.01 0.02 0.08 0.05 0.07 0.13 0.16 0.07 0.06 0.03 0.09 0.11 0.11 0.47 0.76 0.18 0.24 0.17 0.13 0.08 0.08 0.07 0.08 0.10 0.06 0.10 0.27 0.53 0.22 0.12 0.11 0.15 0.21 0.16 0.19 0.41 0.34 0.29 0.20 0.16 0.11 0.13 0.31 0.18 0.17 0.24 0.46 0.61
0.01 0.00 0.00 0.00 0.00 0.01 0.01 0.01 0.00 0.00 0.00 0.00 0.00 0.01 0.00 0.00 0.01 0.08 0.05 0.13 0.25 0.29 0.18 0.17 0.04 0.01 0.00 0.00 0.00 0.01 0.00 0.04 0.05 0.02 0.02 0.01 0.04 0.04 0.04 0.03 0.05 0.05 0.06 0.09 0.14 0.07 0.05 0.05 0.02 0.05 0.04 0.27 0.27 0.32 0.15 0.19 0.11 0.10 0.07 0.05 0.06 0.08 0.12 0.09 0.26 0.30 0.14 0.12 0.14 0.22 0.20 0.23 0.32 0.29 0.29 0.20 0.17 0.24 0.22 0.17 0.18 0.12 0.10 0.13 0.17 0.28 0.57
0.00 0.00 0.00 0.00 0.00 0.01 0.01 0.01 0.00 0.00 0.00 0.01 0.05 0.02 0.04 0.01 0.06 0.14 0.22 0.16 0.12 0.07 0.14 0.06 0.01 0.01 0.00 0.01 0.04 0.08 0.00 0.04 0.02 0.01 0.02 0.01 0.01 0.02 0.04 0.04 0.05 0.03 0.07 0.05 0.15 0.11 0.09 0.07 0.06 0.05 0.06 0.09 0.12 0.17 0.15 0.15 0.09 0.07 0.05 0.09 0.08 0.11 0.11 0.12 0.13 0.22 0.21 0.26 0.21 0.20 0.19 0.21 0.26 0.24 0.16 0.14 0.19 0.14 0.15 0.07 0.05 0.08 0.13 0.22 0.19 0.26 0.96
0.00 0.00 0.00 0.00 0.00 0.00 0.01 0.01 0.00 0.02 0.03 0.02 0.03 0.07 0.02 0.01 0.02 0.05 0.06 0.09 0.13 0.06 0.03 0.01 0.05 0.02 0.01 0.01 0.00 0.07 0.01 0.03 0.03 0.04 0.06 0.03 0.00 0.00 0.01 0.01 0.05 0.06 0.12 0.07 0.08 0.06 0.06 0.06 0.05 0.17 0.19 0.05 0.17 0.16 0.08 0.12 0.09 0.07 0.10 0.13 0.15 0.19 0.07 0.14 0.16 0.22 0.18 0.20 0.20 0.17 0.12 0.24 0.23 0.29 0.25 0.23 0.33 0.14 0.12 0.07 0.08 0.07 0.16 0.42 0.23 0.31 0.41
0.00 0.00 0.00 0.00 0.00 0.01 0.02 0.02 0.01 0.00 0.08 0.09 0.10 0.00 0.00 0.00 0.00 0.05 0.07 0.06 0.22 0.18 0.02 0.02 0.02 0.04 0.05 0.07 0.11 0.02 0.01 0.07 0.01 0.01 0.01 0.00 0.02 0.02 0.01 0.05 0.04 0.04 0.03 0.06 0.06 0.03 0.11 0.11 0.15 0.20 0.04 0.09 0.09 0.08 0.09 0.08 0.10 0.12 0.11 0.15 0.27 0.14 0.19 0.21 0.39 0.32 0.23 0.21 0.17 0.15 0.16 0.19 0.16 0.17 0.20 0.17 0.10 0.11 0.13 0.19 0.28 0.25 0.23 0.31 0.25 0.41 0.33
0.00 0.00 0.00 0.00 0.00 0.02 0.03 0.02 0.04 0.03 0.09 0.00 0.00 0.00 0.00 0.00 0.02 0.03 0.12 0.33 0.13 0.47 0.11 0.06 0.03 0.08 0.14 0.17 0.05 0.02 0.04 0.05 0.02 0.02 0.01 0.01 0.02 0.01 0.01 0.04 0.02 0.02 0.01 0.03 0.02 0.02 0.11 0.11 0.14 0.17 0.07 0.11 0.05 0.05 0.11 0.10 0.20 0.08 0.08 0.09 0.08 0.04 0.12 0.21 0.22 0.17 0.17 0.21 0.24 0.24 0.25 0.20 0.36 0.29 0.18 0.20 0.22 0.29 0.14 0.31 0.23 0.11 0.14 0.14 0.26 0.51 0.86
0.00 0.00 0.00 0.00 0.02 0.02 0.02 0.03 0.07 0.01 0.00 0.00 0.00 0.03 0.08 0.03 0.16 0.08 0.10 0.05 0.12 0.18 0.16 0.17 0.20 0.19 0.10 0.11 0.15 0.04 0.03 0.08 0.03 0.03 0.01 0.01 0.02 0.01 0.01 0.01 0.02 0.06 0.08 0.03 0.06 0.03 0.10 0.06 0.11 0.06 0.04 0.08 0.07 0.09 0.39 0.17 0.14 0.14 0.18 0.15 0.11 0.23 0.42 0.47 0.35 0.32 0.42 0.35 0.32 0.35 0.28 0.21 0.26 0.24 0.13 0.08 0.06 0.03 0.07 0.12 0.12 0.23 0.18 1.09 1.02 0.55 0.39
0.00 0.00 0.00 0.01 0.02 0.03 0.03 0.11 0.00 0.00 0.00 0.00 0.00 0.02 0.01 0.06 0.02 0.05 0.06 0.06 0.03 0.08 0.22 0.49 0.19 0.07 0.12 0.06 0.04 0.03 0.01 0.08 0.09 0.02 0.06 0.09 0.06 0.02 0.01 0.10 0.05 0.11 0.19 0.04 0.12 0.10 0.16 0.18 0.15 0.11 0.14 0.10 0.23 0.26 0.27 0.29 0.26 0.39 0.27 0.46 0.60 0.55 0.42 0.40 0.38 0.41 0.50 0.41 0.31 0.22 0.21 0.23 0.16 0.08 0.05 0.07 0.06 0.05 0.05 0.05 0.16 0.18 1.27 0.60 0.57 0.41 0.27
0.00 0.03 0.01 0.01 0.01 0.02 0.00 0.00 0.00 0.00 0.00 0.00 0.03 0.01 0.02 0.03 0.00 0.00 0.00 0.00 0.02 0.14 0.11 0.11 0.09 0.03 0.02 0.06 0.09 0.02 0.05 0.07 0.05 0.03 0.08 0.06 0.02 0.07 0.09 0.02 0.10 0.07 0.13 0.05 0.11 0.16 0.12 0.16 0.12 0.09 0.19 0.42 0.26 0.44 0.14 0.20 0.21 0.28 0.41 0.64 0.78 0.44 0.46 0.47 0.42 0.33 0.27 0.15 0.11 0.10 0.08 0.05 0.06 0.10 0.09 0.07 0.06 0.10 0.18 0.22 0.29 0.88 0.24 0.25 0.32 0.28 0.22
0.00 0.03 0.01 0.02 0.01 0.00 0.00 0.01 0.04 0.00 0.00 0.01 0.03 0.03 0.00 0.00 0.01 0.00 0.00 0.00 0.01 0.03 0.02 0.04 0.02 0.03 0.06 0.03 0.03 0.06 0.09 0.00 0.02 0.02 0.04 0.04 0.11 0.06 0.12 0.18 0.10 0.10 0.07 0.09 0.12 0.13 0.20 0.10 0.15 0.13 0.33 0.34 0.20 0.25 0.22 0.35 0.32 0.77 0.45 0.60 0.54 0.34 0.37 0.42 0.22 0.17 0.12 0.06 0.08 0.07 0.07 0.06 0.08 0.07 0.06 0.09 0.11 0.23 0.28 0.38 0.45 0.25 0.22 0.10 0.12 0.20 0.26
0.04 0.05 0.02 0.02 0.02 0.01 0.00 0.01 0.03 0.03 0.00 0.01 0.03 0.01 0.00 0.00 0.00 0.00 0.02 0.00 0.00 0.00 0.03 0.01 0.01 0.04 0.05 0.03 0.05 0.05 0.01 0.00 0.01 0.03 0.09 0.13 0.10 0.12 0.16 0.06 0.11 0.09 0.07 0.05 0.11 0.07 0.09 0.19 0.16 0.20 0.52 0.54 0.42 0.29 0.39 0.35 0.24 0.23 0.25 0.49 0.52 0.28 0.24 0.31 0.32 0.14 0.10 0.07 0.05 0.08 0.08 0.10 0.13 0.13 0.14 0.19 0.37 0.44 0.70 0.84 0.65 0.24 0.21 0.15 0.13 0.26 0.45
0.00 0.00 0.03 0.05 0.02 0.00 0.01 0.02 0.03 0.01 0.05 0.01 0.00 0.01 0.00 0.00 0.00 0.00 0.00 0.00 0.01 0.02 0.05 0.01 0.03 0.01 0.02 0.00 0.03 0.03 0.05 0.03 0.06 0.04 0.10 0.14 0.09 0.15 0.07 0.10 0.07 0.08 0.11 0.09 0.08 0.12 0.11 0.21 0.21 0.34 0.37 0.33 0.60 0.61 0.35 0.25 0.22 0.18 0.43 0.67 0.66 0.29 0.27 0.30 0.23 0.14 0.15 0.13 0.17 0.19 0.18 0.17 0.25 0.36 0.39 0.45 0.61 0.70 0.81 0.45 0.24 0.14 0.12 0.13 0.20 0.42 0.76
0.00 0.01 0.02 0.01 0.00 0.00 0.00 0.18 0.06 0.00 0.02 0.05 0.01 0.01 0.00 0.00 0.00 0.00 0.00 0.05 0.03 0.05 0.06 0.04 0.06 0.05 0.04 0.06 0.10 0.02 0.01 0.07 0.17 0.20 0.04 0.02 0.07 0.07 0.10 0.05 0.11 0.18 0.05 0.06 0.09 0.11 0.22 0.24 0.32 0.31 0.23 0.29 0.40 0.36 0.25 0.26 0.26 0.34 0.58 0.49 0.36 0.27 0.32 0.43 0.32 0.23 0.19 0.19 0.25 0.25 0.25 0.33 0.48 0.76 0.92 0.97 0.79 0.71 0.74 0.36 0.19 0.15 0.11 0.14 0.23 0.37 0.50
0.00 0.00 0.00 0.00 0.00 0.02 0.00 0.15 0.24 0.01 0.00 0.00 0.00 0.04 0.02 0.01 0.01 0.04 0.09 0.02 0.02 0.10 0.02 0.04 0.04 0.05 0.05 0.04 0.01 0.03 0.03 0.04 0.07 0.06 0.07 0.02 0.10 0.05 0.04 0.14 0.07 0.05 0.05 0.08 0.13 0.22 0.21 0.21 0.34 0.25 0.31 0.31 0.38 0.30 0.22 0.34 0.60 0.75 0.67 0.38 0.34 0.40 0.41 0.41 0.36 0.23 0.23 0.32 0.43 0.55 0.65 0.66 0.76 0.86 0.85 0.82 0.74 0.58 0.57 0.41 0.30 0.26 0.16 0.17 0.21 0.27 0.29
0.00 0.01 0.01 0.00 0.01 0.03 0.01 0.17 0.21 0.02 0.00 0.01 0.01 0.01 0.02 0.04 0.10 0.06 0.04 0.01 0.04 0.03 0.05 0.05 0.02 0.03 0.04 0.05 0.10 0.08 0.04 0.06 0.04 0.03 0.15 0.11 0.05 0.11 0.07 0.11 0.09 0.09 0.11 0.13 0.20 0.21 0.24 0.16 0.33 0.40 0.35 0.37 0.43 0.53 0.60 0.70 0.65 0.69 0.63 0.42 0.57 0.35 0.28 0.27 0.27 0.25 0.38 0.49 0.55 0.52 0.61 0.62 0.58 0.61 0.61 0.59 0.61 0.57 0.55 0.43 0.37 0.37 0.31 0.39 0.38 0.37 0.30
0.00 0.01 0.00 0.00 0.01 0.01 0.00 0.03 0.07 0.04 0.11 0.11 0.22 0.10 0.07 0.07 0.05 0.03 0.06 0.02 0.04 0.03 0.02 0.02 0.03 0.02 0.08 0.03 0.04 0.05 0.10 0.06 0.06 0.04 0.03 0.22 0.16 0.06 0.03 0.06 0.15 0.12 0.16 0.16 0.16 0.19 0.20 0.16 0.19 0.39 0.43 0.65 0.60 0.47 0.62 0.71 0.59 0.46 0.31 0.24 0.22 0.21 0.24 0.23 0.22 0.27 0.38 0.37 0.36 0.41 0.47 0.49 0.47 0.43 0.42 0.48 0.55 0.61 0.53 0.52 0.50 0.45 0.40 0.43 0.40 0.41 0.44
0.01 0.03 0.00 0.02 0.00 0.02 0.01 0.00 0.02 0.01 0.00 0.04 0.23 0.10 0.22 0.11 0.09 0.07 0.06 0.04 0.02 0.02 0.02 0.03 0.04 0.03 0.03 0.04 0.02 0.09 0.03 0.04 0.07 0.09 0.16 0.08 0.03 0.06 0.15 0.17 0.17 0.19 0.22 0.25 0.27 0.31 0.36 0.29 0.42 0.65 0.69 0.72 0.74 0.53 0.71 0.60 0.42 0.35 0.29 0.23 0.21 0.25 0.23 0.26 0.31 0.39 0.41 0.36 0.32 0.33 0.33 0.37 0.39 0.34 0.33 0.37 0.43 0.48 0.42 0.39 0.36 0.32 0.30 0.30 0.30 0.33 0.29
0.01 0.00 0.01 0.01 0.00 0.01 0.03 0.06 0.03 0.02 0.02 0.02 0.03 0.08 0.08 0.16 0.40 0.26 0.17 0.02 0.01 0.03 0.02 0.03 0.03 0.03 0.03 0.03 0.04 0.06 0.04 0.12 0.10 0.08 0.02 0.02 0.07 0.14 0.17 0.16 0.14 0.12 0.22 0.31 0.25 0.40 0.34 0.39 0.62 0.53 0.79 0.72 0.70 0.70 0.74 0.45 0.32 0.29 0.40 0.17 0.17 0.18 0.20 0.23 0.25 0.35 0.39 0.33 0.35 0.34 0.38 0.31 0.26 0.25 0.23 0.25 0.33 0.35 0.29 0.23 0.21 0.20 0.19 0.20 0.21 0.23 0.28
0.01 0.02 0.05 0.03 0.01 0.00 0.01 0.01 0.02 0.07 0.06 0.01 0.01 0.23 0.19 0.06 0.12 0.12 0.06 0.24 0.08 0.02 0.00 0.01 0.01 0.04 0.07 0.04 0.06 0.05 0.05 0.05 0.04 0.02 0.02 0.05 0.13 0.17 0.17 0.18 0.19 0.26 0.26 0.17 0.20 0.25 0.36 0.44 0.57 0.59 0.63 0.55 0.55 0.73 0.55 0.34 0.24 0.25 0.20 0.24 0.12 0.21 0.21 0.23 0.28 0.36 0.36 0.35 0.31 0.31 0.26 0.27 0.28 0.19 0.16 0.15 0.13 0.14 0.15 0.18 0.19 0.18 0.17 0.16 0.14 0.13 0.13
0.03 0.03 0.02 0.01 0.01 0.11 0.06 0.04 0.05 0.04 0.05 0.06 0.04 0.05 0.12 0.28 0.23 0.11 0.13 0.05 0.07 0.03 0.02 0.06 0.07 0.07 0.12 0.06 0.05 0.07 0.09 0.02 0.02 0.03 0.04 0.09 0.13 0.15 0.23 0.16 0.21 0.31 0.24 0.15 0.12 0.15 0.46 0.60 0.78 0.66 0.60 0.77 0.65 0.65 0.45 0.33 0.23 0.25 0.20 0.10 0.11 0.15 0.19 0.29 0.36 0.45 0.44 0.36 0.33 0.22 0.21 0.22 0.13 0.08 0.06 0.05 0.06 0.06 0.06 0.05 0.05 0.06 0.08 0.11 0.13 0.13 0.16
0.04 0.04 0.02 0.01 0.00 0.00 0.01 0.02 0.01 0.01 0.08 0.10 0.10 0.08 0.03 0.08 0.06 0.06 0.29 0.12 0.08 0.09 0.07 0.02 0.03 0.11 0.07 0.13 0.07 0.06 0.03 0.06 0.08 0.03 0.03 0.09 0.17 0.16 0.21 0.32 0.30 0.28 0.20 0.09 0.06 0.16 0.58 0.80 0.73 1.09 0.69 0.61 0.51 0.41 0.27 0.20 0.26 0.09 0.07 0.10 0.11 0.13 0.19 0.26 0.31 0.42 0.40 0.34 0.33 0.30 0.30 0.23 0.17 0.16 0.18 0.20 0.11 0.09 0.17 0.18 0.10 0.04 0.03 0.04 0.03 0.03 0.06